LNR1026 HLLB-HECA

Flight info

Callsign LNR1026
Flight time 1h 50m
Altitude 39000
Route REDFI1C REDFI M1 RASNO DCT ARLOS UN4 SALUN N705 BOPIX N710 TAKRI M720 CVO
Aircraft A320/M-SDE3FGHIRWY/LB1

Departure

Time 2026-04-30 07:00
Airport Benina International Airport (HLLB)

Arrival

Time 2026-04-30 08:50
Airport Cairo International Airport (HECA)
Time Latitude Longitude Altitude Speed Heading
2026-04-30 06:40 32.09883 20.26182 405 ft 0 kts 67°
2026-04-30 06:56 32.09886 20.26183 405 ft 1 kts 34°
2026-04-30 06:56 32.09901 20.26165 402 ft 6 kts 314°
2026-04-30 06:57 32.09942 20.26108 401 ft 12 kts 302°
2026-04-30 06:57 32.09977 20.26005 400 ft 16 kts 326°
2026-04-30 06:57 32.10096 20.25965 400 ft 19 kts 350°
2026-04-30 06:57 32.10223 20.25936 397 ft 18 kts 348°
2026-04-30 06:58 32.10349 20.25933 394 ft 19 kts 15°
2026-04-30 06:58 32.10475 20.25906 390 ft 21 kts 329°
2026-04-30 06:58 32.10611 20.25815 391 ft 24 kts 330°
2026-04-30 06:58 32.10761 20.25714 388 ft 22 kts 330°
2026-04-30 06:59 32.10883 20.25684 386 ft 18 kts 44°
2026-04-30 06:59 32.10938 20.25801 385 ft 12 kts 63°
2026-04-30 06:59 32.10952 20.25902 384 ft 14 kts 115°
2026-04-30 06:59 32.10920 20.25934 385 ft 0 kts 150°
2026-04-30 07:00 32.10790 20.26022 390 ft 58 kts 150°
2026-04-30 07:00 32.10237 20.26392 400 ft 122 kts 150°
2026-04-30 07:00 32.09364 20.26991 543 ft 159 kts 147°
2026-04-30 07:00 32.08400 20.27639 1193 ft 161 kts 149°
2026-04-30 07:01 32.07407 20.28275 1889 ft 163 kts 149°
2026-04-30 07:01 32.06442 20.28990 2479 ft 170 kts 138°
2026-04-30 07:01 32.05588 20.30069 2839 ft 191 kts 123°
2026-04-30 07:01 32.04975 20.31552 3185 ft 214 kts 106°
2026-04-30 07:02 32.04765 20.33394 3636 ft 240 kts 88°
2026-04-30 07:02 32.05162 20.35399 4245 ft 262 kts 66°
2026-04-30 07:02 32.06231 20.37177 5083 ft 272 kts 43°
2026-04-30 07:02 32.07848 20.38374 5946 ft 279 kts 21°
2026-04-30 07:03 32.09696 20.39166 6820 ft 286 kts 19°
2026-04-30 07:03 32.11594 20.39948 7674 ft 292 kts 18°
2026-04-30 07:03 32.13528 20.40734 8527 ft 296 kts 17°
2026-04-30 07:03 32.15492 20.41530 9409 ft 299 kts 17°
2026-04-30 07:04 32.17445 20.42326 10274 ft 303 kts 16°
2026-04-30 07:04 32.19509 20.43170 10622 ft 326 kts 15°
2026-04-30 07:04 32.21731 20.44081 10891 ft 349 kts 15°
2026-04-30 07:04 32.24074 20.45048 11469 ft 360 kts 16°
2026-04-30 07:05 32.28866 20.47037 12993 ft 369 kts 15°
2026-04-30 07:05 32.31301 20.48048 13743 ft 373 kts 14°
2026-04-30 07:05 32.33765 20.49069 14473 ft 377 kts 14°
2026-04-30 07:06 32.36258 20.50103 15194 ft 381 kts 14°
2026-04-30 07:06 32.38774 20.51146 15880 ft 385 kts 14°
2026-04-30 07:06 32.41320 20.52202 16537 ft 390 kts 14°
2026-04-30 07:06 32.43892 20.53271 17177 ft 393 kts 14°
2026-04-30 07:07 32.46488 20.54350 17820 ft 397 kts 14°
2026-04-30 07:07 32.49109 20.55440 18428 ft 401 kts 14°
2026-04-30 07:07 32.51748 20.56541 19017 ft 404 kts 14°
2026-04-30 07:07 32.54406 20.57650 19603 ft 406 kts 14°
2026-04-30 07:08 32.57081 20.58766 20174 ft 409 kts 14°
2026-04-30 07:08 32.59776 20.59889 20736 ft 412 kts 14°
2026-04-30 07:08 32.62487 20.61018 21286 ft 414 kts 14°
2026-04-30 07:08 32.65216 20.62152 21825 ft 416 kts 14°
2026-04-30 07:09 32.67961 20.63290 22327 ft 419 kts 13°
2026-04-30 07:09 32.70685 20.64423 22819 ft 421 kts 14°
2026-04-30 07:09 32.73462 20.65582 23308 ft 424 kts 14°
2026-04-30 07:09 32.76251 20.66750 23780 ft 426 kts 14°
2026-04-30 07:10 32.79054 20.67925 24248 ft 429 kts 14°
2026-04-30 07:10 32.81880 20.69110 24687 ft 431 kts 14°
2026-04-30 07:10 32.84713 20.70296 25114 ft 433 kts 13°
2026-04-30 07:10 32.87566 20.71490 25532 ft 436 kts 13°
2026-04-30 07:11 32.90432 20.72693 25954 ft 438 kts 13°
2026-04-30 07:11 32.93312 20.73903 26362 ft 440 kts 13°
2026-04-30 07:11 32.96207 20.75121 26758 ft 442 kts 13°
2026-04-30 07:11 32.99113 20.76344 27144 ft 444 kts 13°
2026-04-30 07:12 33.02037 20.77576 27518 ft 446 kts 12°
2026-04-30 07:12 33.04966 20.78812 27879 ft 448 kts 12°
2026-04-30 07:12 33.07913 20.80055 28226 ft 450 kts 12°
2026-04-30 07:12 33.10876 20.81304 28578 ft 452 kts 12°
2026-04-30 07:13 33.13852 20.82562 28911 ft 454 kts 12°
2026-04-30 07:13 33.16831 20.83820 29229 ft 455 kts 12°
2026-04-30 07:13 33.19820 20.85082 29539 ft 457 kts 12°
2026-04-30 07:13 33.22789 20.86338 29842 ft 459 kts 12°
2026-04-30 07:14 33.25800 20.87614 30134 ft 460 kts 12°
2026-04-30 07:14 33.28819 20.88894 30538 ft 459 kts 12°
2026-04-30 07:14 33.31834 20.90172 30966 ft 457 kts 12°
2026-04-30 07:14 33.34816 20.91514 31328 ft 461 kts 16°
2026-04-30 07:15 33.37738 20.93120 31683 ft 462 kts 17°
2026-04-30 07:15 33.40649 20.94733 32054 ft 461 kts 17°
2026-04-30 07:15 33.43558 20.96348 32431 ft 460 kts 17°
2026-04-30 07:15 33.46457 20.97958 32795 ft 459 kts 17°
2026-04-30 07:16 33.49357 20.99572 33149 ft 459 kts 17°
2026-04-30 07:16 33.52252 21.01181 33471 ft 459 kts 17°
2026-04-30 07:16 33.55147 21.02785 33808 ft 458 kts 17°
2026-04-30 07:16 33.58043 21.04388 34150 ft 457 kts 17°
2026-04-30 07:17 33.60933 21.05989 34495 ft 457 kts 17°
2026-04-30 07:17 33.63819 21.07592 34821 ft 457 kts 17°
2026-04-30 07:17 33.69577 21.10798 35427 ft 456 kts 17°
2026-04-30 07:18 33.72458 21.12404 35701 ft 456 kts 17°
2026-04-30 07:18 33.75340 21.14012 35995 ft 455 kts 17°
2026-04-30 07:18 33.78216 21.15618 36256 ft 456 kts 17°
2026-04-30 07:18 33.81089 21.17225 36510 ft 456 kts 17°
2026-04-30 07:19 33.83961 21.18832 36745 ft 456 kts 17°
2026-04-30 07:19 33.86836 21.20440 36985 ft 455 kts 17°
2026-04-30 07:19 33.89705 21.22043 37064 ft 453 kts 17°
2026-04-30 07:20 33.95391 21.25223 37073 ft 449 kts 17°
2026-04-30 07:20 34.01040 21.28396 37072 ft 448 kts 17°
2026-04-30 07:21 34.06700 21.31574 37073 ft 449 kts 17°
2026-04-30 07:21 34.12366 21.34756 37073 ft 449 kts 17°
2026-04-30 07:22 34.20846 21.39540 37073 ft 448 kts 17°
2026-04-30 07:22 34.26495 21.42776 37070 ft 452 kts 21°
2026-04-30 07:23 34.29114 21.44865 37069 ft 462 kts 32°
2026-04-30 07:23 34.31484 21.47620 37065 ft 473 kts 43°
2026-04-30 07:23 34.33403 21.50891 37063 ft 483 kts 55°
2026-04-30 07:23 34.34821 21.54621 37060 ft 491 kts 67°
2026-04-30 07:24 34.36500 21.62681 37059 ft 495 kts 72°
2026-04-30 07:24 34.38073 21.70755 37057 ft 496 kts 72°
2026-04-30 07:25 34.39657 21.78887 37059 ft 496 kts 72°
2026-04-30 07:25 34.40976 21.85696 37058 ft 496 kts 72°
2026-04-30 07:26 34.42556 21.93857 37059 ft 497 kts 72°
2026-04-30 07:26 34.44125 22.01999 37058 ft 497 kts 72°
2026-04-30 07:27 34.45696 22.10166 37062 ft 497 kts 73°
2026-04-30 07:27 34.47257 22.18332 37064 ft 497 kts 73°
2026-04-30 07:28 34.48810 22.26493 37067 ft 497 kts 73°
2026-04-30 07:28 34.50356 22.34651 37068 ft 497 kts 73°
2026-04-30 07:29 34.51890 22.42818 37071 ft 496 kts 73°
2026-04-30 07:29 34.53427 22.50944 37074 ft 496 kts 73°
2026-04-30 07:30 34.55722 22.63190 37073 ft 495 kts 73°
2026-04-30 07:31 34.57240 22.71341 37069 ft 495 kts 73°
2026-04-30 07:31 34.58755 22.79488 37068 ft 494 kts 73°
2026-04-30 07:32 34.60261 22.87627 37067 ft 494 kts 73°
2026-04-30 07:32 34.61261 22.95892 37065 ft 499 kts 88°
2026-04-30 07:33 34.60296 23.04226 37061 ft 501 kts 107°
2026-04-30 07:33 34.57471 23.11927 37056 ft 500 kts 118°
2026-04-30 07:34 34.54281 23.19432 37055 ft 500 kts 118°
2026-04-30 07:34 34.51098 23.26938 37057 ft 500 kts 118°
2026-04-30 07:35 34.47908 23.34443 37053 ft 501 kts 118°
2026-04-30 07:35 34.44710 23.41944 37051 ft 501 kts 118°
2026-04-30 07:36 34.41493 23.49455 37032 ft 504 kts 118°
2026-04-30 07:36 34.38253 23.57000 37033 ft 506 kts 118°
2026-04-30 07:37 34.35009 23.64576 37040 ft 508 kts 118°
2026-04-30 07:37 34.31742 23.72165 37047 ft 509 kts 118°
2026-04-30 07:38 34.28449 23.79762 37051 ft 510 kts 118°
2026-04-30 07:38 34.25160 23.87359 37071 ft 509 kts 118°
2026-04-30 07:39 34.21907 23.94884 37097 ft 507 kts 118°
2026-04-30 07:39 34.18643 24.02423 37099 ft 506 kts 118°
2026-04-30 07:40 34.15370 24.09934 37099 ft 505 kts 119°
2026-04-30 07:40 34.12092 24.17433 37101 ft 504 kts 119°
2026-04-30 07:41 34.08821 24.24910 37083 ft 503 kts 119°
2026-04-30 07:41 34.05543 24.32382 37094 ft 503 kts 119°
2026-04-30 07:42 34.02261 24.39841 37084 ft 503 kts 119°
2026-04-30 07:42 33.98264 24.46691 37084 ft 498 kts 136°
2026-04-30 07:43 33.93188 24.52316 37080 ft 495 kts 142°
2026-04-30 07:43 33.88049 24.57845 37073 ft 496 kts 142°
2026-04-30 07:44 33.82910 24.63391 37076 ft 496 kts 142°
2026-04-30 07:44 33.77764 24.68921 37078 ft 497 kts 142°
2026-04-30 07:45 33.72600 24.74435 37080 ft 497 kts 142°
2026-04-30 07:45 33.67426 24.79940 37083 ft 497 kts 142°
2026-04-30 07:46 33.62257 24.85448 37084 ft 497 kts 142°
2026-04-30 07:46 33.57086 24.90954 37090 ft 497 kts 142°
2026-04-30 07:47 33.51912 24.96456 37093 ft 497 kts 142°
2026-04-30 07:47 33.46742 25.01948 37093 ft 497 kts 142°
2026-04-30 07:48 33.41560 25.07438 37095 ft 497 kts 142°
2026-04-30 07:48 33.36382 25.12918 37094 ft 497 kts 142°
2026-04-30 07:49 33.31200 25.18397 37095 ft 497 kts 142°
2026-04-30 07:49 33.26003 25.23871 37094 ft 497 kts 142°
2026-04-30 07:50 33.20809 25.29330 37079 ft 497 kts 142°
2026-04-30 07:50 33.15619 25.34788 37082 ft 497 kts 142°
2026-04-30 07:51 33.10416 25.40235 37085 ft 497 kts 142°
2026-04-30 07:51 33.05218 25.45672 37083 ft 497 kts 142°
2026-04-30 07:52 33.00010 25.51120 37081 ft 497 kts 142°
2026-04-30 07:52 32.94816 25.56558 37082 ft 498 kts 142°
2026-04-30 07:53 32.89604 25.61989 37091 ft 498 kts 142°
2026-04-30 07:53 32.84384 25.67413 37093 ft 498 kts 142°
2026-04-30 07:54 32.79158 25.72838 37098 ft 499 kts 142°
2026-04-30 07:54 32.73933 25.78259 37090 ft 499 kts 143°
2026-04-30 07:55 32.68702 25.83670 37086 ft 499 kts 143°
2026-04-30 07:55 32.63455 25.89087 37103 ft 500 kts 143°
2026-04-30 07:56 32.58205 25.94502 37102 ft 500 kts 143°
2026-04-30 07:56 32.52945 25.99921 37084 ft 500 kts 143°
2026-04-30 07:57 32.47722 26.05291 37098 ft 501 kts 143°
2026-04-30 07:57 32.42465 26.10697 37096 ft 500 kts 143°
2026-04-30 07:58 32.37203 26.16092 37097 ft 501 kts 143°
2026-04-30 07:58 32.31941 26.21494 37100 ft 501 kts 143°
2026-04-30 07:59 32.26670 26.26884 37107 ft 501 kts 143°
2026-04-30 07:59 32.21387 26.32268 37103 ft 501 kts 143°
2026-04-30 08:00 32.13458 26.40344 37104 ft 501 kts 143°
2026-04-30 08:00 32.08177 26.45712 37108 ft 501 kts 143°
2026-04-30 08:01 32.02894 26.51062 37112 ft 501 kts 143°
2026-04-30 08:01 31.97614 26.56408 37119 ft 500 kts 143°
2026-04-30 08:02 31.89700 26.64416 37114 ft 500 kts 143°
2026-04-30 08:03 31.79143 26.75083 37118 ft 499 kts 143°
2026-04-30 08:04 31.73876 26.80387 37121 ft 499 kts 143°
2026-04-30 08:04 31.68596 26.85675 37120 ft 499 kts 143°
2026-04-30 08:05 31.63311 26.90959 37122 ft 498 kts 143°
2026-04-30 08:05 31.58038 26.96237 37125 ft 498 kts 143°
2026-04-30 08:06 31.52773 27.01510 37125 ft 498 kts 143°
2026-04-30 08:06 31.47501 27.06777 37124 ft 497 kts 143°
2026-04-30 08:07 31.42227 27.12024 37122 ft 497 kts 143°
2026-04-30 08:07 31.37816 27.16412 37120 ft 497 kts 143°
2026-04-30 08:08 31.32478 27.21527 37116 ft 493 kts 150°
2026-04-30 08:08 31.26490 27.25215 37118 ft 485 kts 161°
2026-04-30 08:09 31.20368 27.28527 37112 ft 485 kts 161°
2026-04-30 08:09 31.14255 27.31846 37109 ft 484 kts 161°
2026-04-30 08:10 31.08141 27.35163 37108 ft 485 kts 161°
2026-04-30 08:10 31.02024 27.38476 37107 ft 485 kts 161°
2026-04-30 08:11 30.95933 27.41767 37106 ft 485 kts 160°
2026-04-30 08:11 30.90195 27.46064 37116 ft 495 kts 145°
2026-04-30 08:12 30.84819 27.51072 37106 ft 495 kts 146°
2026-04-30 08:12 30.79422 27.56087 37111 ft 496 kts 146°
2026-04-30 08:13 30.74028 27.61072 37107 ft 496 kts 146°
2026-04-30 08:13 30.68624 27.66057 37106 ft 496 kts 146°
2026-04-30 08:14 30.63224 27.71037 37108 ft 496 kts 146°
2026-04-30 08:14 30.57826 27.76016 37113 ft 496 kts 146°
2026-04-30 08:15 30.52422 27.80982 37110 ft 496 kts 146°
2026-04-30 08:15 30.47009 27.85953 37102 ft 496 kts 146°
2026-04-30 08:16 30.41601 27.90918 37112 ft 496 kts 146°
2026-04-30 08:16 30.36183 27.95881 37106 ft 496 kts 146°
2026-04-30 08:17 30.30765 28.00834 37110 ft 497 kts 146°
2026-04-30 08:17 30.25342 28.05791 37117 ft 496 kts 146°
2026-04-30 08:18 30.19909 28.10736 37115 ft 496 kts 146°
2026-04-30 08:18 30.14490 28.15668 37115 ft 496 kts 146°
2026-04-30 08:19 30.09073 28.20596 37113 ft 496 kts 146°
2026-04-30 08:19 30.03646 28.25524 37106 ft 496 kts 146°
2026-04-30 08:20 29.98218 28.30442 37110 ft 496 kts 146°
2026-04-30 08:20 29.92794 28.35357 37105 ft 495 kts 146°
2026-04-30 08:21 29.87447 28.40303 37107 ft 498 kts 141°
2026-04-30 08:21 29.82911 28.46402 37107 ft 503 kts 130°
2026-04-30 08:22 29.78654 28.52801 37109 ft 503 kts 130°
2026-04-30 08:22 29.74377 28.59185 37105 ft 503 kts 130°
2026-04-30 08:23 29.70090 28.65559 37113 ft 503 kts 131°
2026-04-30 08:23 29.65793 28.71931 37110 ft 504 kts 131°
2026-04-30 08:24 29.61506 28.78301 37109 ft 503 kts 131°
2026-04-30 08:24 29.57228 28.84663 37111 ft 503 kts 131°
2026-04-30 08:25 29.52940 28.91023 37110 ft 503 kts 131°
2026-04-30 08:25 29.48651 28.97372 37109 ft 503 kts 131°
2026-04-30 08:26 29.44577 29.03902 37115 ft 507 kts 120°
2026-04-30 08:26 29.42137 29.11478 37110 ft 509 kts 101°
2026-04-30 08:27 29.41632 29.19537 37099 ft 507 kts 89°
2026-04-30 08:27 29.41547 29.27623 37083 ft 507 kts 89°
2026-04-30 08:28 29.41436 29.35705 37082 ft 507 kts 89°
2026-04-30 08:28 29.41325 29.43810 37083 ft 508 kts 89°
2026-04-30 08:29 29.41213 29.51913 37086 ft 508 kts 89°
2026-04-30 08:29 29.41103 29.60012 37084 ft 508 kts 89°
2026-04-30 08:30 29.40986 29.68096 37078 ft 508 kts 89°
2026-04-30 08:30 29.40871 29.76208 37077 ft 508 kts 89°
2026-04-30 08:31 29.40746 29.84304 37078 ft 508 kts 89°
2026-04-30 08:31 29.40612 29.92413 37078 ft 508 kts 89°
2026-04-30 08:32 29.40471 30.00458 37075 ft 508 kts 90°
2026-04-30 08:32 29.40402 30.04513 36792 ft 509 kts 90°
2026-04-30 08:32 29.40332 30.08621 35651 ft 510 kts 89°
2026-04-30 08:32 29.40260 30.12625 34668 ft 504 kts 89°
2026-04-30 08:33 29.40184 30.16653 33719 ft 507 kts 89°
2026-04-30 08:33 29.40110 30.20733 32476 ft 516 kts 89°
2026-04-30 08:33 29.40034 30.24838 31241 ft 513 kts 89°
2026-04-30 08:33 29.39954 30.28903 29993 ft 508 kts 89°
2026-04-30 08:34 29.40044 30.32969 28665 ft 513 kts 81°
2026-04-30 08:34 29.40699 30.36976 27863 ft 506 kts 71°
2026-04-30 08:34 29.41834 30.40754 27135 ft 495 kts 62°
2026-04-30 08:34 29.43409 30.44214 26374 ft 485 kts 52°
2026-04-30 08:35 29.45383 30.47299 25658 ft 475 kts 45°
2026-04-30 08:35 29.47464 30.50223 24951 ft 471 kts 45°
2026-04-30 08:35 29.49517 30.53125 24249 ft 466 kts 45°
2026-04-30 08:35 29.51549 30.56013 23553 ft 462 kts 45°
2026-04-30 08:36 29.53558 30.58874 22876 ft 458 kts 46°
2026-04-30 08:36 29.55527 30.61683 22247 ft 444 kts 46°
2026-04-30 08:36 29.57454 30.64434 21647 ft 440 kts 46°
2026-04-30 08:36 29.59359 30.67150 21067 ft 434 kts 46°
2026-04-30 08:37 29.61245 30.69844 20486 ft 429 kts 46°
2026-04-30 08:37 29.63088 30.72525 19370 ft 425 kts 47°
2026-04-30 08:37 29.64884 30.75207 18244 ft 420 kts 48°
2026-04-30 08:37 29.66634 30.77858 17132 ft 413 kts 49°
2026-04-30 08:38 29.68351 30.80477 16046 ft 407 kts 49°
2026-04-30 08:38 29.70038 30.83054 14966 ft 400 kts 49°
2026-04-30 08:38 29.71699 30.85585 13908 ft 393 kts 49°
2026-04-30 08:38 29.73336 30.88069 12869 ft 385 kts 49°
2026-04-30 08:39 29.74941 30.90495 11852 ft 377 kts 50°
2026-04-30 08:39 29.76516 30.92872 10883 ft 368 kts 50°
2026-04-30 08:39 29.78028 30.95165 10320 ft 349 kts 51°
2026-04-30 08:39 29.79453 30.97328 9872 ft 329 kts 51°
2026-04-30 08:40 29.80798 30.99366 9458 ft 312 kts 51°
2026-04-30 08:40 29.82081 31.01313 9054 ft 297 kts 51°
2026-04-30 08:40 29.82913 31.02572 8792 ft 288 kts 51°
2026-04-30 08:41 29.83867 31.04029 8538 ft 274 kts 51°
2026-04-30 08:41 29.84996 31.05749 8141 ft 264 kts 51°
2026-04-30 08:41 29.86083 31.07392 7800 ft 252 kts 51°
2026-04-30 08:41 29.87125 31.08965 7474 ft 242 kts 51°
2026-04-30 08:42 29.88129 31.10479 7152 ft 234 kts 51°
2026-04-30 08:42 29.89099 31.11949 6855 ft 227 kts 51°
2026-04-30 08:42 29.90041 31.13377 6561 ft 220 kts 51°
2026-04-30 08:42 29.90932 31.14731 6312 ft 205 kts 51°
2026-04-30 08:43 29.91762 31.15997 6047 ft 191 kts 51°
2026-04-30 08:43 29.92430 31.17018 5815 ft 182 kts 51°
2026-04-30 08:43 29.93181 31.18160 5577 ft 176 kts 50°
2026-04-30 08:43 29.93915 31.19273 5349 ft 173 kts 50°
2026-04-30 08:44 29.94644 31.20381 5106 ft 172 kts 50°
2026-04-30 08:44 29.95353 31.21456 4873 ft 166 kts 51°
2026-04-30 08:44 29.96059 31.22529 4628 ft 170 kts 50°
2026-04-30 08:44 29.96763 31.23601 4410 ft 164 kts 51°
2026-04-30 08:45 29.97443 31.24638 4211 ft 161 kts 51°
2026-04-30 08:45 29.98116 31.25664 3976 ft 159 kts 51°
2026-04-30 08:45 29.98776 31.26667 3774 ft 155 kts 51°
2026-04-30 08:45 29.99423 31.27654 3557 ft 153 kts 52°
2026-04-30 08:46 30.00060 31.28626 3341 ft 152 kts 52°
2026-04-30 08:46 30.00655 31.29632 3118 ft 152 kts 54°
2026-04-30 08:46 30.01291 31.30606 2930 ft 152 kts 51°
2026-04-30 08:46 30.01732 31.31234 2815 ft 150 kts 50°
2026-04-30 08:47 30.02400 31.32152 2626 ft 147 kts 49°
2026-04-30 08:47 30.03060 31.33043 2436 ft 145 kts 49°
2026-04-30 08:47 30.03716 31.33922 2265 ft 145 kts 49°
2026-04-30 08:47 30.04376 31.34802 2062 ft 144 kts 48°
2026-04-30 08:48 30.05027 31.35668 1875 ft 143 kts 48°
2026-04-30 08:48 30.05675 31.36529 1687 ft 141 kts 48°
2026-04-30 08:48 30.06314 31.37380 1488 ft 140 kts 49°
2026-04-30 08:48 30.06957 31.38235 1311 ft 141 kts 49°
2026-04-30 08:49 30.07595 31.39083 1113 ft 140 kts 49°
2026-04-30 08:49 30.08230 31.39928 944 ft 140 kts 49°
2026-04-30 08:49 30.08866 31.40775 754 ft 139 kts 49°
2026-04-30 08:49 30.09503 31.41622 568 ft 139 kts 49°
2026-04-30 08:50 30.10117 31.42443 459 ft 107 kts 50°
2026-04-30 08:50 30.10416 31.42843 462 ft 56 kts 49°
2026-04-30 08:50 30.10663 31.43174 463 ft 53 kts 49°
2026-04-30 08:50 30.10876 31.43438 465 ft 38 kts 37°
2026-04-30 08:51 30.11045 31.43551 462 ft 21 kts 23°
2026-04-30 08:51 30.11182 31.43596 456 ft 19 kts 347°
2026-04-30 08:51 30.11239 31.43469 448 ft 18 kts 270°
2026-04-30 08:51 30.11316 31.43354 426 ft 19 kts 319°
2026-04-30 08:52 30.11421 31.43250 431 ft 22 kts 319°
2026-04-30 08:52 30.11539 31.43132 421 ft 18 kts 319°
2026-04-30 08:52 30.11648 31.43025 412 ft 19 kts 319°
2026-04-30 08:52 30.11734 31.42939 404 ft 13 kts 319°
2026-04-30 08:53 30.11814 31.42859 399 ft 15 kts 319°
2026-04-30 08:53 30.11898 31.42776 392 ft 18 kts 319°
2026-04-30 08:53 30.11997 31.42678 383 ft 12 kts 319°
2026-04-30 08:53 30.12062 31.42614 381 ft 11 kts 319°
2026-04-30 08:54 30.12120 31.42555 379 ft 12 kts 320°
2026-04-30 08:54 30.12187 31.42485 371 ft 2 kts 308°
2026-04-30 08:54 30.12188 31.42484 371 ft 1 kts 308°
2026-04-30 08:54 30.12200 31.42451 369 ft 9 kts 284°
2026-04-30 08:55 30.12179 31.42374 367 ft 11 kts 230°
2026-04-30 08:55 30.12134 31.42314 367 ft 9 kts 229°
2026-04-30 08:55 30.12083 31.42244 367 ft 15 kts 230°
2026-04-30 08:55 30.12006 31.42142 368 ft 18 kts 228°
2026-04-30 08:56 30.11926 31.42037 368 ft 17 kts 229°
2026-04-30 08:56 30.11848 31.41932 368 ft 18 kts 229°
2026-04-30 08:56 30.11765 31.41820 368 ft 19 kts 229°
2026-04-30 08:56 30.11688 31.41717 368 ft 14 kts 230°
2026-04-30 08:57 30.11626 31.41633 368 ft 13 kts 229°
2026-04-30 08:57 30.11563 31.41549 369 ft 19 kts 228°
2026-04-30 08:57 30.11471 31.41429 369 ft 22 kts 229°
2026-04-30 08:57 30.11368 31.41290 370 ft 24 kts 228°
2026-04-30 08:58 30.11263 31.41152 370 ft 19 kts 229°
2026-04-30 08:58 30.11172 31.41032 370 ft 21 kts 229°
2026-04-30 08:58 30.11078 31.40904 370 ft 20 kts 233°
2026-04-30 08:58 30.11087 31.40782 365 ft 16 kts 275°
2026-04-30 08:59 30.11026 31.40675 364 ft 16 kts 229°
2026-04-30 08:59 30.10953 31.40579 364 ft 16 kts 229°
2026-04-30 08:59 30.10919 31.40468 362 ft 16 kts 287°
2026-04-30 08:59 30.10952 31.40356 356 ft 14 kts 286°
2026-04-30 09:00 30.11001 31.40292 352 ft 6 kts
2026-04-30 09:00 30.11024 31.40300 351 ft 3 kts 17°
2026-04-30 09:00 30.11046 31.40308 350 ft 3 kts 17°
2026-04-30 09:00 30.11061 31.40313 350 ft 0 kts 17°